Preview of NWS' New Version of Forecast
This preview is not operational and should not be used for support decisions.

Regional Weather Roundup (RWR)

Issued by Philadelphia/Mt Holly (PHI)

                            
000
ASUS41 KPHI 250412
RWRPHI

REGIONAL WEATHER ROUNDUP
NATIONAL WEATHER SERVICE MOUNT HOLLY NJ
1200 AM EDT SAT MAY 25 2019

NOTE:  "FAIR" INDICATES FEW OR NO CLOUDS BELOW 12,000 FEET WITH NO
SIGNIFICANT WEATHER AND/OR OBSTRUCTIONS TO VISIBILITY.

 * = STATION DOES NOT REPORT PRECIPITATION (E.G. RAIN, SNOW, ETC.) 
        OR FOG.

NJZ015>026-250500-
SOUTHERN NEW JERSEY
  
CITY           SKY/WX    TMP DP  RH WIND       PRES   REMARKS
POMONA         FAIR      64  53  67 N6        30.10R                  
WILDWOOD*      FAIR      62  55  77 E7        30.12R                  
MILLVILLE      FAIR      67  51  56 NE8       30.10R                  
WRIGHTSTOWN    MOCLDY    62  50  66 NE7       30.10R                  
MOUNT HOLLY    FAIR      63  50  62 NE6       30.12R                  
TRENTON        FAIR      62  49  62 N8        30.12R                  

$$
NJZ001>014-250500-
NORTHERN NEW JERSEY
  
CITY           SKY/WX    TMP DP  RH WIND       PRES   REMARKS
SUSSEX         FAIR      52  49  89 CALM      30.16R                  
ANDOVER*         N/A     54  50  86 CALM      30.15S                  
MORRISTOWN     FAIR      59  50  72 N6        30.13S                  
NEWARK         FAIR      63  48  58 N12       30.12S                  
TETERBORO      FAIR      61  49  64 N6        30.12R                  
CALDWELL       FAIR      59  50  72 S3        30.14R                  
SOMERVILLE     FAIR      59  49  69 NW5       30.12R                  
ALLAIRE*       FAIR      61  50  67 NW7       30.13S                  
TOMS RIVER*    FAIR      63  52  67 N9        30.12S                  

$$
PAZ043-044-047-054-055-060>062-066>071-250500-
EASTERN PENNSYLVANIA
  
CITY           SKY/WX    TMP DP  RH WIND       PRES   REMARKS
PHILADELPHIA   FAIR      66  50  56 NE12      30.12R                  
NORTH PHILA    FAIR      65  50  58 NE9       30.14R                  
BLUE BELL*     FAIR      62  50  64 N3        30.14R                  
DOYLESTOWN     FAIR      62  48  60 NE7       30.12R                  
QUAKERTOWN*    CLEAR     61  50  67 N8        30.15                   
PERKASIE*      FAIR      59  50  72 N7        30.15R                  
POTTSTOWN      FAIR      62  50  64 NE12      30.16R                  
LANCASTER      FAIR      66  55  67 E7        30.12R                  
COATESVILLE    FAIR      64  52  63 NE5G13    30.14R                  
WEST CHESTER   FAIR      66  50  55 NE8       30.13R                  
READING        FAIR      66  54  65 VRB3      30.13R                  
ALLENTOWN      FAIR      62  48  60 NE8       30.15R                  
QN CITY/ALNTWN FAIR      63  48  59 NE7       30.16R                  
MOUNT POCONO   FAIR      50  47  89 CALM      30.17R                  
HAZLETON       FAIR      55  46  71 CALM      30.20R                  
LEHIGHTON      FAIR      61  50  67 CALM      30.17R                  
WILKES BARRE   FAIR      54  49  83 CALM      30.17R                  

$$
DEZALL-MDZ008-012-015-019-020-250500-
DELAWARE AND EASTERN MARYLAND
  
CITY           SKY/WX    TMP DP  RH WIND       PRES   REMARKS
WILMINGTON     FAIR      69  53  56 NE10      30.11R                  
DOVER          FAIR      66  55  66 E8        30.10R                  
CHESWOLD         N/A     66  55  68 E5        30.10R                  
GEORGETOWN     FAIR      67  56  67 E8        30.10R                  
EASTON         FAIR      66  59  76 CALM      30.12F                  
STEVENSVILLE   FAIR      68  61  77 CALM      30.09S                  
PATUXENT       MOCLDY    67  62  84 CALM      30.09                   
OCEAN CITY     MOCLDY    65  57  75 E6        30.11R                  
WALLOPS ISLAND MOCLDY    67  58  72 CALM      30.09R                  
CAMBRIDGE      PTCLDY    63  59  88 CALM      30.09R                  
SALISBURY      FAIR      62  57  83 CALM      30.09R                  

$$
PAZ001-021-NYZ056-072-MDZ011-DCZ001-250500-
OTHER NEARBY LOCATIONS
  
CITY           SKY/WX    TMP DP  RH WIND       PRES   REMARKS
HARRISBURG     FAIR      66  54  65 CALM      30.10R                  
STATE COLLEGE  CLOUDY    60  52  74 CALM      30.15S                  
WILLIAMSPORT   FAIR      61  52  72 E5        30.15R                  
BINGHAMTON     FAIR      52  45  77 CALM      30.17R                  
NEW YORK CITY  FAIR      61  49  64 N5        30.15S                  
BALTIMORE      FAIR      68  54  60 CALM      30.08S                  
WASHINGTON DC  FAIR      74  53  48 CALM      30.09F                  

$$